Presure
337 358 446 239 213 204 220 210 214 227 217 195 217 213 200 217 224 152 171 168 167 141 170 185 129 116 119 127 131 139 100 82 115 84 104 83 90 85 101 92 81 149 138 130 140
344 359 421 282 228 199 223 207 210 211 225 189 206 211 220 210 223 200 170 157 158 180 159 119 156 157 131 123 125 121 138 97 109 89 91 85 86 118 108 92 87 84 88 97 107
328 357 397 298 243 241 183 238 208 209 254 230 207 214 213 221 209 220 211 193 191 164 163 163 157 156 169 122 130 127 129 135 134 141 125 87 86 74 121 126 92 92 133 98 139
341 361 386 336 295 251 199 227 224 207 257 235 224 211 207 218 202 204 214 216 212 184 168 159 157 168 158 138 161 142 155 159 133 130 133 130 110 112 95 141 141 136 126 158 98
341 347 363 370 349 299 245 199 221 228 209 254 225 212 215 215 208 213 201 203 206 207 211 185 178 160 157 184 171 168 189 179 158 132 121 116 128 117 128 125 131 133 139 147 133
336 352 346 344 383 283 254 241 214 236 208 272 227 221 217 208 212 201 211 212 211 212 208 207 191 193 130 164 193 188 147 166 167 119 123 124 124 121 130 122 126 121 129 138 148
363 358 343 175 318 160 279 241 234 246 215 262 243 224 211 192 206 206 209 201 197 223 220 219 210 205 191 184 132 160 164 193 201 150 192 216 127 124 201 199 144 124 137 132 145
334 364 312 282 276 272 263 262 251 221 230 215 265 244 213 206 211 206 204 213 215 213 209 217 220 223 222 206 213 194 216 215 130 202 210 202 201 216 211 127 135 197 155 160 136
181 314 295 284 267 272 260 226 236 187 209 221 271 244 230 217 223 215 200 202 207 201 203 209 213 198 213 223 221 236 224 226 175 233 192 188 192 264 259 200 223 219 152 132 105
372 196 313 283 280 272 278 241 236 244 259 211 217 225 276 257 242 242 232 213 213 212 210 211 219 210 214 184 201 204 217 235 209 200 248 243 242 144 247 227 266 266 191 212 115
356 157 261 310 284 282 276 253 198 259 249 203 207 212 209 214 240 248 247 245 245 241 236 233 210 214 217 234 240 243 240 185 248 249 241 246 195 245 247 263 81 254 144 123 106
396 276 148 409 325 286 283 267 246 270 260 234 217 215 210 213 214 218 214 215 225 240 238 237 233 236 242 243 243 248 248 246 251 254 255 144 251 145 152 268 295 262 145 98 151
352 347 368 410 373 313 284 275 265 217 259 222 224 217 208 216 204 203 210 218 220 227 234 240 244 247 248 252 229 256 253 257 260 257 265 268 273 192 359 364 352 225 134 299 357
278 351 225 253 357 315 312 306 294 266 252 207 206 226 251 245 219 219 223 233 224 222 238 250 256 259 257 259 256 257 248 253 250 251 261 307 335 335 323 323 318 326 334 347 359
344 292 342 354 376 345 325 319 323 310 215 266 228 244 228 227 235 244 238 241 251 259 237 243 247 243 241 240 242 239 242 267 324 329 317 314 322 302 299 313 315 303 305 309 311
323 355 347 281 322 333 296 333 335 301 317 249 295 256 259 255 256 243 228 236 221 232 232 232 232 236 251 254 289 298 325 314 306 299 292 284 282 275 298 303 278 283 292 295 313
181 226 285 345 344 331 297 282 266 261 243 264 259 218 234 229 235 236 235 235 263 281 334 344 339 323 318 309 304 300 294 288 278 286 274 268 278 269 276 279 264 271 280 289 292
161 148 159 219 229 251 350 356 362 372 374 318 364 362 346 339 343 344 337 323 321 311 300 299 291 291 289 285 289 283 265 271 258 275 265 257 268 260 262 270 256 252 261 269 161
175 147 156 147 265 224 214 143 213 218 215 236 240 245 317 315 310 306 313 311 305 291 287 269 286 273 277 274 259 268 266 261 257 262 263 261 246 256 261 264 266 273 272 263 264
207 191 195 210 220 139 227 217 196 202 173 136 138 173 185 218 183 225 225 225 230 237 275 294 266 295 298 287 285 278 287 282 268 249 268 260 256 260 239 164 206 150 231 136 143
195 195 208 166 158 218 182 145 151 236 148 155 175 170 149 202 194 195 188 172 151 192 189 194 213 193 206 260 257 245 244 267 241 197 265 245 247 268 251 250 258 227 261 176 173
136 142 145 218 182 208 203 166 144 139 142 151 236 259 262 185 253 247 193 194 152 151 207 154 204 201 122 208 208 216 218 219 226 286 275 273 274 141 135 135 142 135 131 135 135
123 130 130 138 143 142 167 191 191 207 156 191 159 174 187 170 247 180 162 167 255 246 180 182 227 198 215 211 205 196 197 208 207 208 213 209 212 236 265 269 266 264 259 257 250
184 133 118 124 166 142 132 156 135 141 149 205 196 203 200 184 248 265 256 201 271 266 260 220 204 212 208 166 167 238 193 191 197 201 198 200 191 197 204 206 215 208 223 281 262
190 189 197 184 169 133 146 152 164 140 171 203 196 186 184 181 215 212 147 231 276 286 244 273 266 258 252 243 221 169 173 226 235 163 170 213 176 181 175 178 202 159 193 197 177
177 183 172 151 182 194 190 178 185 134 130 127 122 124 177 206 181 190 139 133 223 231 230 252 236 228 271 263 258 253 249 239 235 235 239 238 245 245 227 164 169 195 162 161 209
167 173 176 193 177 184 185 181 150 131 165 202 194 153 128 143 183 199 171 171 135 190 136 229 198 244 251 276 280 275 266 261 262 261 254 246 239 237 159 234 241 242 246 247 249
Wind_Speed
60 56 59 96 94 91 93 85 87 97 93 92 94 94 94 89 89 81 91 84 82 72 78 83 64 59 57 55 53 54 50 37 46 36 44 27 38 22 32 25 16 39 39 37 42
36 42 59 62 99 77 95 75 81 85 96 90 91 91 89 90 84 97 87 81 78 86 76 66 72 73 61 58 56 56 52 53 46 45 44 34 32 40 38 30 29 24 25 29 26
45 33 67 87 114 105 61 86 84 83 102 101 93 90 87 84 87 85 92 95 92 83 81 78 76 73 77 61 60 57 54 55 53 51 51 40 38 18 39 36 42 35 38 36 46
30 31 56 82 97 106 69 86 88 87 88 98 93 86 85 84 88 85 83 85 90 91 85 76 73 80 73 65 72 62 68 66 54 50 52 49 54 52 48 41 45 44 39 52 32
30 30 53 63 80 84 102 70 82 89 78 96 90 84 84 84 82 79 85 85 85 87 86 91 87 76 73 84 77 75 83 77 68 53 52 56 53 51 49 42 45 45 48 51 48
25 33 49 55 62 87 102 90 78 81 68 82 89 85 82 80 80 81 78 79 81 81 86 89 91 91 64 75 88 84 65 73 72 55 54 55 55 54 48 50 49 50 48 51 56
25 38 47 26 54 26 71 93 80 80 66 75 87 85 79 74 75 75 75 78 79 74 76 80 86 89 88 78 62 72 74 87 89 65 84 94 58 56 85 85 57 51 52 51 56
26 43 68 72 67 70 69 83 88 51 64 58 72 86 75 72 74 73 73 73 74 75 76 75 77 78 80 88 89 86 91 94 61 89 90 88 84 100 95 53 54 85 63 62 48
24 38 83 79 77 77 84 52 60 35 46 49 55 72 75 73 79 79 71 70 72 74 76 76 76 79 79 79 80 79 83 84 70 81 72 72 71 85 83 78 105 104 58 43 42
34 33 82 82 81 76 76 50 40 46 46 44 45 48 61 67 70 77 80 74 76 77 76 74 78 78 79 70 78 80 78 83 80 81 76 81 81 52 88 75 88 92 74 82 50
33 13 29 85 72 71 69 44 40 43 40 45 44 46 45 44 50 60 65 68 73 77 78 78 74 76 80 82 81 81 80 75 82 82 76 81 62 87 92 95 19 97 54 45 41
43 35 28 45 69 61 60 52 43 40 36 35 48 43 38 40 41 45 43 45 51 57 60 64 67 70 72 74 77 78 79 79 83 86 86 43 88 46 51 90 91 77 50 22 19
39 33 29 36 66 60 56 45 17 35 19 42 31 31 31 37 33 37 43 48 51 53 56 60 64 66 67 68 62 68 71 70 68 72 77 79 79 46 20 16 21 15 13 29 31
50 43 38 36 58 54 51 43 39 28 16 30 28 24 22 31 40 41 43 45 45 49 51 51 52 54 56 53 49 53 59 61 67 66 69 50 14 8 19 15 18 26 27 29 27
51 53 44 34 32 53 39 36 28 20 24 14 26 21 31 34 35 33 35 36 39 38 36 34 37 42 47 49 52 55 56 57 19 2 12 9 9 15 16 21 23 16 17 18 18
71 47 42 47 35 27 23 22 20 9 17 14 16 14 16 20 21 24 27 32 34 37 39 41 42 46 44 46 35 29 10 12 7 4 3 4 10 13 23 22 8 13 18 18 20
60 81 73 45 39 35 29 26 21 18 12 11 11 5 17 17 22 25 28 31 31 36 10 7 13 13 11 10 11 13 14 10 8 8 1 7 15 12 18 16 12 15 19 24 27
43 40 47 69 71 70 32 23 23 22 19 7 18 17 18 17 18 23 23 19 22 19 12 10 11 13 15 11 9 14 10 7 9 7 5 7 15 14 17 21 15 16 17 20 25
44 33 39 37 71 61 58 30 55 54 48 55 53 53 36 34 32 30 25 22 17 11 10 5 11 6 11 11 2 4 6 3 2 8 5 10 12 14 16 23 26 22 18 17 17
70 57 67 61 77 28 49 48 40 45 34 21 20 27 33 44 26 44 43 41 41 42 29 20 14 12 5 6 6 5 2 2 3 10 11 7 9 10 8 19 12 25 12 28 28
61 59 67 33 26 78 42 19 25 45 20 21 25 21 12 34 29 29 24 14 7 23 20 21 28 16 21 26 13 5 10 10 3 10 9 2 12 8 16 12 11 10 16 14 15
17 19 22 73 39 71 63 26 13 12 15 15 54 46 41 16 39 36 20 20 3 2 25 4 22 20 13 24 22 26 27 26 28 7 9 9 6 25 28 28 27 30 29 31 32
10 10 11 13 15 15 27 42 39 66 18 42 14 21 25 18 50 12 10 12 35 34 11 13 27 13 23 22 17 13 14 21 20 19 20 18 21 23 15 15 15 16 18 16 17
41 5 8 7 29 14 5 17 7 9 11 51 38 49 47 34 69 55 44 28 34 33 31 22 19 20 17 12 14 27 7 11 11 15 11 11 6 10 15 17 18 17 19 19 20
49 45 46 35 24 1 8 12 22 4 21 47 38 28 24 24 61 53 0 59 45 31 45 29 28 27 26 26 21 17 20 21 20 20 20 21 17 15 19 19 20 26 16 19 24
35 40 31 10 33 39 35 27 39 5 7 7 7 6 21 40 22 24 5 8 66 69 61 55 46 39 28 25 25 24 21 20 22 23 22 23 22 23 19 26 26 21 30 31 25
26 31 32 47 30 32 30 29 11 10 16 43 31 9 13 9 23 38 16 16 10 36 12 64 30 58 53 31 27 25 25 26 24 22 21 22 23 24 23 24 24 23 22 21 21
Wind_Direction
211 212 192 216 216 221 222 223 218 222 221 221 224 225 225 225 228 223 232 233 234 230 234 236 227 225 227 230 234 241 223 235 230 247 242 254 260 260 259 254 255 250 250 253 257
199 203 182 191 217 219 221 219 219 220 223 223 223 225 225 225 227 228 227 228 233 236 235 227 236 236 229 228 229 229 239 230 235 241 240 247 257 232 252 259 247 249 247 251 261
202 190 173 184 213 216 214 214 219 218 218 221 219 223 224 225 225 229 230 232 233 235 235 237 237 239 242 229 232 230 232 237 237 240 242 248 259 207 241 243 262 259 241 261 255
191 177 181 186 198 216 211 213 217 217 219 220 221 220 222 224 225 227 231 234 235 234 237 235 237 240 241 234 243 236 244 245 235 233 238 237 236 239 253 247 247 249 237 253 254
199 183 178 185 189 199 216 219 212 216 218 218 221 219 222 224 224 227 230 232 234 235 238 238 241 239 241 246 245 246 251 249 246 236 236 240 241 239 237 237 241 244 248 248 241
187 176 174 177 175 190 211 216 212 213 215 217 220 220 222 223 224 227 229 233 236 238 238 239 241 243 233 242 249 249 242 248 248 238 236 237 239 243 240 238 239 242 240 247 250
175 174 163 139 167 178 198 214 215 213 208 213 218 220 221 222 225 228 231 232 236 241 243 243 243 243 246 244 235 246 248 253 256 246 257 261 239 238 260 260 248 244 243 244 248
139 158 152 163 168 179 193 206 217 202 209 213 216 220 222 225 229 231 232 236 238 239 242 246 247 249 250 248 250 249 253 254 237 259 262 260 260 263 262 243 241 257 251 251 248
74 154 154 163 179 183 199 199 207 186 195 210 214 221 224 229 233 234 233 237 239 240 243 246 248 246 249 254 254 259 256 258 249 260 254 255 256 270 267 255 261 262 253 253 258
141 54 161 173 179 193 196 203 201 207 200 203 208 215 226 229 232 235 236 240 242 244 246 248 251 249 252 250 252 253 261 264 257 256 270 269 265 258 265 267 266 264 260 261 244
128 50 152 177 187 194 200 209 195 209 188 199 206 213 214 217 228 235 241 245 249 249 250 251 251 254 257 261 264 265 265 256 270 271 265 268 262 264 263 269 227 261 260 261 265
112 112 63 159 182 189 196 207 210 214 208 186 205 214 218 223 228 233 238 243 248 250 251 253 253 255 259 260 262 264 266 268 271 271 272 259 266 259 263 273 277 277 259 264 270
87 98 115 151 166 185 201 212 200 177 215 190 201 211 221 229 233 236 240 244 248 251 254 258 258 259 261 265 263 269 268 271 273 271 273 272 275 276 316 336 302 304 272 299 304
69 82 85 95 166 181 197 210 219 229 211 195 206 214 226 231 233 239 243 249 249 251 253 256 256 259 259 262 266 269 262 264 263 271 274 287 284 303 277 314 317 321 323 318 312
70 69 88 103 139 180 189 202 218 224 177 223 202 205 216 225 231 237 241 243 249 256 243 247 246 247 249 253 255 260 264 274 273 200 255 263 358 329 324 344 349 346 335 337 334
63 79 80 73 93 113 114 184 206 179 224 162 250 204 221 220 227 229 239 235 248 245 248 253 255 256 263 265 275 274 175 176 170 199 128 346 2 326 353 7 4 358 1 352 2
68 65 66 75 81 86 90 93 101 101 116 130 161 293 218 239 238 242 246 250 271 280 303 103 108 111 117 140 142 167 163 178 207 92 75 356 26 353 26 23 339 15 23 24 18
65 72 70 70 69 72 85 89 93 95 95 91 90 82 85 92 100 95 97 104 98 101 112 107 123 120 126 131 140 155 231 190 246 66 41 0 35 15 27 26 347 337 15 24 266
52 64 71 75 61 63 77 78 76 76 80 72 73 73 90 87 84 83 87 88 88 93 104 46 117 154 146 150 207 161 176 180 194 70 39 39 343 38 41 47 36 22 35 23 33
49 54 52 58 54 76 65 64 66 75 78 77 77 75 75 68 80 66 64 61 60 60 69 79 86 73 89 121 122 43 149 313 42 334 53 65 41 63 13 271 308 266 342 265 271
49 47 50 52 76 54 57 89 71 62 87 83 75 82 83 69 70 67 70 75 115 64 65 65 58 61 57 57 57 48 45 42 0 268 47 37 22 31 7 11 23 330 39 269 276
72 67 76 43 42 53 56 55 62 75 65 98 57 57 56 60 51 47 67 68 0 346 57 295 59 58 222 50 46 43 40 41 42 55 48 38 12 266 264 263 265 262 259 260 258
33 64 55 65 83 85 43 46 44 55 66 53 39 34 35 14 53 27 23 11 38 35 12 356 32 60 35 34 39 44 35 26 22 23 31 32 30 34 11 349 3 7 2 12 14
38 10 19 29 44 37 57 35 83 77 55 57 49 50 53 58 52 51 48 34 37 36 34 20 11 24 20 315 312 23 6 338 358 1 356 2 339 354 359 1 8 5 4 1 12
20 26 28 36 39 273 35 49 41 25 15 45 42 39 28 35 48 48 3 48 44 34 43 31 28 25 23 19 3 313 310 8 12 297 300 344 290 283 289 292 335 287 312 324 297
18 18 19 345 31 32 34 32 29 257 275 282 301 297 8 53 7 19 297 291 46 45 44 46 45 44 19 17 18 19 18 10 6 3 3 2 4 4 345 285 291 319 282 282 330
10 11 9 7 12 19 25 25 345 273 19 25 34 351 264 349 20 24 353 349 275 40 278 40 16 41 41 24 11 10 6 4 357 352 350 352 353 353 300 349 352 354 357 359 1